Location: Unspecified
(0.0000°N, 0.0000°E)
Time: 08:43:03
(UTC+00:00)

Vanguard 2 - Pass Details

Date: 19 December 2018
Orbit: 553 x 2939 km, 32.9° (Epoch: 23 March)

Event Time Altitude Azimuth Distance (km) Brightness Sun altitude
Rises 22:58:45 0° 342° (NNW) 3,844 - -62.6°
Reaches altitude 10° 23:02:47 10° 6° (N) 3,313 - -63.1°
Maximum altitude 23:07:16 15° 38° (NE) 3,407 - -63.6°
Drops below altitude 10° 23:12:50 10° 68° (ENE) 4,321 - -64.2°
Sets 23:19:36 0° 88° (E) 5,892 - -64.8°
